This is the latest recevied weather packets stored in our database for station/object HS2LXA-13. If no packets are shown the sender has not sent any weather packets the latest 10 day(s).
| Time | Temp. | Humidity | Pressure | Rain* | Wind** | Luminosity | Snow |
|---|---|---|---|---|---|---|---|
| 1777794574 | 35° C | 69% | 1007 hPa | 0 mm | - | 0 W/m² | - |
| 1777793973 | 35° C | 69% | 1007.4 hPa | 0 mm | - | 0 W/m² | - |
| 1777793372 | 35.56° C | 70% | 1007.6 hPa | 0 mm | - | 0 W/m² | - |
| 1777792771 | 35.56° C | 69% | 1007.9 hPa | 0 mm | - | 0 W/m² | - |
| 1777792169 | 36.11° C | 69% | 1008 hPa | 0 mm | - | 0 W/m² | - |
| 1777791567 | 35.56° C | 71% | 1008 hPa | 0 mm | - | 0 W/m² | - |
| 1777790966 | 35.56° C | 72% | 1008 hPa | 0 mm | - | 0 W/m² | - |
| 1777790364 | 36.11° C | 72% | 1008.2 hPa | 0 mm | - | 0 W/m² | - |
| 1777789762 | 35.56° C | 74% | 1008.6 hPa | 0 mm | - | 0 W/m² | - |
| 1777789166 | 35° C | 74% | 1008.9 hPa | 0 mm | - | 0 W/m² | - |
| 1777788558 | 35.56° C | 74% | 1009.2 hPa | 0 mm | - | 0 W/m² | - |
| 1777787956 | 35° C | 76% | 1009.5 hPa | 0 mm | - | 0 W/m² | - |
| 1777787355 | 35° C | 76% | 1009.6 hPa | 0 mm | - | 0 W/m² | - |
| 1777786754 | 35.56° C | 76% | 1009.9 hPa | 0 mm | - | 0 W/m² | - |
| 1777786147 | 35° C | 75% | 1010.1 hPa | 0 mm | - | 0 W/m² | - |
| 1777785546 | 35° C | 70% | 1010.5 hPa | 0 mm | - | 0 W/m² | - |
| 1777784948 | 35° C | 69% | 1010.5 hPa | 0 mm | - | 0 W/m² | - |
| 1777783882 | 36.67° C | 70% | 1010.8 hPa | 0 mm | - | 0 W/m² | - |
| 1777783278 | 36.67° C | 71% | 1010.9 hPa | 0 mm | - | 0 W/m² | - |
| 1777782677 | 36.11° C | 71% | 1011.2 hPa | 0 mm | - | 0 W/m² | - |
| 1777782076 | 36.67° C | 71% | 1011.2 hPa | 0 mm | - | 0 W/m² | - |
| 1777781482 | 36.11° C | 72% | 1011.3 hPa | 0 mm | - | 0 W/m² | - |
| 1777780874 | 36.11° C | 72% | 1011.3 hPa | 0 mm | - | 0 W/m² | - |
| 1777780272 | 35.56° C | 73% | 1011.3 hPa | 0 mm | - | 0 W/m² | - |
| 1777779665 | 36.11° C | 74% | 1011.6 hPa | 0 mm | - | 0 W/m² | - |
* Rain latest hour (hover to see other rain measurements)
** Current wind speed in m/s (hover to see current wind gust speed)